,,PA_Meas_PMT16A,,PR_Meas_QMR101_102,,RH_Meas_QMH101,,SR_Meas_QMS101,,TA_Meas_QMH101,,GenWind,,GenWind,
time,status,PA,status,PR,status,RH,status,SR,status,TA,status,DirAvg,status,SpdAvg,
2010-04-23, 00:00:05,VALID,918.456,VALID,0,VALID,96.7259,VALID,0,VALID,21.4567,VALID,355,VALID,0.0929687,
2010-04-23, 00:01:05,VALID,918.461,VALID,0,VALID,96.7488,VALID,0,VALID,21.4762,VALID,355,VALID,0.028125,
2010-04-23, 00:02:05,VALID,918.462,VALID,0,VALID,96.7793,VALID,0,VALID,21.4762,VALID,355,VALID,0.021875,
2010-04-23, 00:03:05,VALID,918.442,VALID,0,VALID,96.7793,VALID,0.107441,VALID,21.5152,VALID,355,VALID,0,
2010-04-23, 00:04:05,VALID,918.461,VALID,0,VALID,96.7259,VALID,0,VALID,21.4567,VALID,355,VALID,0,
2010-04-23, 00:05:05,VALID,918.434,VALID,0,VALID,96.7335,VALID,0,VALID,21.4973,VALID,355,VALID,0.0183594,
2010-04-23, 00:06:05,VALID,918.441,VALID,0,VALID,96.6725,VALID,0,VALID,21.4567,VALID,355,VALID,0.124219,
2010-04-23, 00:07:05,VALID,918.45,VALID,0,VALID,96.6878,VALID,0,VALID,21.4583,VALID,355,VALID,0.505078,
2010-04-23, 00:08:05,VALID,918.465,VALID,0,VALID,96.6497,VALID,0,VALID,21.4177,VALID,355,VALID,0.478516,
2010-04-23, 00:09:05,VALID,918.517,VALID,0,VALID,96.6802,VALID,0,VALID,21.4372,VALID,355,VALID,0.210547,
2010-04-23, 00:10:05,VALID,918.467,VALID,0,VALID,96.6725,VALID,0,VALID,21.4583,VALID,355,VALID,0.485547,
2010-04-23, 00:11:05,VALID,918.471,VALID,0,VALID,96.6497,VALID,0,VALID,21.4177,VALID,355,VALID,0.498047,
2010-04-23, 00:12:05,VALID,918.511,VALID,0,VALID,96.6115,VALID,0,VALID,21.3981,VALID,355,VALID,0.568359,
2010-04-23, 00:13:05,VALID,918.497,VALID,0,VALID,96.5277,VALID,0,VALID,21.3591,VALID,355,VALID,0.576172,
2010-04-23, 00:14:05,VALID,918.519,VALID,0,VALID,96.5201,VALID,0,VALID,21.3803,VALID,355,VALID,0.403125,
2010-04-23, 00:15:05,VALID,918.488,VALID,0,VALID,96.5201,VALID,0,VALID,21.3803,VALID,355,VALID,0.38125,
2010-04-23, 00:16:05,VALID,918.481,VALID,0,VALID,96.5124,VALID,0,VALID,21.3591,VALID,355,VALID,0,
2010-04-23, 00:17:05,VALID,918.489,VALID,0,VALID,96.5201,VALID,0,VALID,21.3998,VALID,355,VALID,0.0710938,
2010-04-23, 00:18:05,VALID,918.476,VALID,0,VALID,96.4896,VALID,0,VALID,21.3998,VALID,355,VALID,0.179297,
2010-04-23, 00:19:05,VALID,918.459,VALID,0,VALID,96.4515,VALID,0,VALID,21.3803,VALID,355,VALID,0,
2010-04-23, 00:20:05,VALID,918.439,VALID,0,VALID,96.4362,VALID,0,VALID,21.3396,VALID,355,VALID,0,
2010-04-23, 00:21:05,VALID,918.447,VALID,0,VALID,96.4972,VALID,0,VALID,21.3803,VALID,355,VALID,0,
2010-04-23, 00:22:05,VALID,918.422,VALID,0,VALID,96.4591,VALID,0,VALID,21.3803,VALID,355,VALID,0,
2010-04-23, 00:23:05,VALID,918.432,VALID,0,VALID,96.4515,VALID,0,VALID,21.3591,VALID,355,VALID,0,
2010-04-23, 00:24:05,VALID,918.387,VALID,0,VALID,96.4438,VALID,0,VALID,21.3786,VALID,355,VALID,0.262109,
2010-04-23, 00:25:05,VALID,918.396,VALID,0,VALID,96.421,VALID,0,VALID,21.3786,VALID,355,VALID,0.268359,
2010-04-23, 00:26:05,VALID,918.358,VALID,0,VALID,96.5048,VALID,0,VALID,21.4193,VALID,355,VALID,0.193359,
2010-04-23, 00:27:05,VALID,918.366,VALID,0,VALID,96.4743,VALID,0,VALID,21.4193,VALID,355,VALID,0.141406,
2010-04-23, 00:28:05,VALID,918.335,VALID,0,VALID,96.4819,VALID,0,VALID,21.4177,VALID,355,VALID,0.328516,
2010-04-23, 00:29:05,VALID,918.271,VALID,0,VALID,96.4438,VALID,0,VALID,21.4388,VALID,355,VALID,0.205078,
2010-04-23, 00:30:05,VALID,918.264,VALID,0,VALID,96.3752,VALID,0,VALID,21.4193,VALID,355,VALID,0.223438,
2010-04-23, 00:31:05,VALID,918.236,VALID,0,VALID,96.36,VALID,0,VALID,21.3981,VALID,355,VALID,0.229687,
2010-04-23, 00:32:05,VALID,918.224,VALID,0,VALID,96.3752,VALID,0,VALID,21.3998,VALID,355,VALID,0.247656,
2010-04-23, 00:33:05,VALID,918.245,VALID,0,VALID,96.3829,VALID,0,VALID,21.3998,VALID,355,VALID,0.241016,
2010-04-23, 00:34:05,VALID,918.229,VALID,0,VALID,96.3829,VALID,0,VALID,21.3998,VALID,355,VALID,0.103125,
2010-04-23, 00:35:05,VALID,918.212,VALID,0,VALID,96.3447,VALID,0,VALID,21.3591,VALID,355,VALID,0.0316406,
2010-04-23, 00:36:05,VALID,918.19,VALID,0,VALID,96.3829,VALID,0,VALID,21.3803,VALID,355,VALID,0,
2010-04-23, 00:37:05,VALID,918.181,VALID,0,VALID,96.4667,VALID,0,VALID,21.3998,VALID,355,VALID,0.046875,
2010-04-23, 00:38:05,VALID,918.155,VALID,0,VALID,96.4591,VALID,0,VALID,21.3786,VALID,355,VALID,0,
2010-04-23, 00:39:05,VALID,918.172,VALID,0,VALID,96.4896,VALID,0,VALID,21.3998,VALID,355,VALID,0,
2010-04-23, 00:40:05,VALID,918.149,VALID,0,VALID,96.5201,VALID,0,VALID,21.4193,VALID,355,VALID,0,
2010-04-23, 00:41:05,VALID,918.153,VALID,0,VALID,96.4057,VALID,0,VALID,21.3608,VALID,355,VALID,0,
2010-04-23, 00:42:05,VALID,918.11,VALID,0,VALID,96.36,VALID,0,VALID,21.3217,VALID,355,VALID,0.275391,
2010-04-23, 00:43:05,VALID,918.088,VALID,0,VALID,96.4057,VALID,0,VALID,21.3022,VALID,355,VALID,0.582031,
2010-04-23, 00:44:05,VALID,918.097,VALID,0,VALID,96.4896,VALID,0,VALID,21.3201,VALID,355,VALID,0.351172,
2010-04-23, 00:45:05,VALID,918.079,VALID,0,VALID,96.4515,VALID,0,VALID,21.3217,VALID,355,VALID,0.401953,
2010-04-23, 00:46:05,VALID,918.06,VALID,0,VALID,96.4667,VALID,0,VALID,21.3006,VALID,355,VALID,0.573438,
2010-04-23, 00:47:05,VALID,918.021,VALID,0,VALID,96.3752,VALID,0,VALID,21.3022,VALID,355,VALID,0.674219,
2010-04-23, 00:48:05,VALID,918.009,VALID,0,VALID,96.3676,VALID,0,VALID,21.2437,VALID,355,VALID,0.600781,
2010-04-23, 00:49:05,VALID,917.977,VALID,0,VALID,96.4743,VALID,0,VALID,21.2421,VALID,355,VALID,0.44375,
2010-04-23, 00:50:05,VALID,917.95,VALID,0,VALID,96.4667,VALID,0,VALID,21.2437,VALID,355,VALID,0.355469,
2010-04-23, 00:51:05,VALID,917.946,VALID,0,VALID,96.3981,VALID,0,VALID,21.2047,VALID,355,VALID,0.269922,
2010-04-23, 00:52:05,VALID,917.93,VALID,0,VALID,96.421,VALID,0,VALID,21.1852,VALID,355,VALID,0.430078,
2010-04-23, 00:53:05,VALID,917.936,VALID,0,VALID,96.4972,VALID,0,VALID,21.164,VALID,355,VALID,0.439844,
2010-04-23, 00:54:05,VALID,917.906,VALID,0,VALID,96.5582,VALID,0,VALID,21.1836,VALID,355,VALID,0.142188,
2010-04-23, 00:55:05,VALID,917.902,VALID,0,VALID,96.5887,VALID,0,VALID,21.2031,VALID,355,VALID,0,
2010-04-23, 00:56:05,VALID,917.895,VALID,0,VALID,96.5658,VALID,0,VALID,21.2047,VALID,355,VALID,0.0191406,
2010-04-23, 00:57:05,VALID,917.885,VALID,0,VALID,96.5506,VALID,0,VALID,21.2047,VALID,355,VALID,0.367969,
2010-04-23, 00:58:05,VALID,917.904,VALID,0,VALID,96.5277,VALID,0,VALID,21.1445,VALID,355,VALID,0.481641,
2010-04-23, 00:59:05,VALID,917.869,VALID,0,VALID,96.5506,VALID,0,VALID,21.1445,VALID,355,VALID,0.421875,
2010-04-23, 01:00:05,VALID,917.825,VALID,0,VALID,96.5887,VALID,0,VALID,21.1657,VALID,355,VALID,0.0121094,
2010-04-23, 01:01:05,VALID,917.813,VALID,0,VALID,96.6192,VALID,0,VALID,21.1461,VALID,355,VALID,0.410547,
2010-04-23, 01:02:05,VALID,917.767,VALID,0,VALID,96.5887,VALID,0,VALID,21.1055,VALID,355,VALID,0.317187,
2010-04-23, 01:03:05,VALID,917.751,VALID,0,VALID,96.5963,VALID,0,VALID,21.1071,VALID,355,VALID,0.584766,
2010-04-23, 01:04:05,VALID,917.714,VALID,0,VALID,96.5734,VALID,0,VALID,21.0876,VALID,355,VALID,0.539453,
2010-04-23, 01:05:05,VALID,917.731,VALID,0,VALID,96.6497,VALID,0,VALID,21.1055,VALID,355,VALID,0.369922,
2010-04-23, 01:06:05,VALID,917.698,VALID,0,VALID,96.6802,VALID,0,VALID,21.1071,VALID,355,VALID,0.173438,
2010-04-23, 01:07:05,VALID,917.7,VALID,0,VALID,96.7488,VALID,0,VALID,21.1461,VALID,355,VALID,0,
2010-04-23, 01:08:05,VALID,917.691,VALID,0,VALID,96.703,VALID,0,VALID,21.125,VALID,355,VALID,0.0964844,
2010-04-23, 01:09:05,VALID,917.668,VALID,0,VALID,96.7259,VALID,0,VALID,21.1055,VALID,355,VALID,0.253125,
2010-04-23, 01:10:05,VALID,917.671,VALID,0,VALID,96.703,VALID,0,VALID,21.1266,VALID,355,VALID,0.289844,
2010-04-23, 01:11:05,VALID,917.644,VALID,0,VALID,96.703,VALID,0,VALID,21.086,VALID,355,VALID,0.467187,
2010-04-23, 01:12:05,VALID,917.607,VALID,0,VALID,96.7107,VALID,0,VALID,21.0665,VALID,355,VALID,0.19375,
2010-04-23, 01:13:05,VALID,917.585,VALID,0,VALID,96.6954,VALID,0,VALID,21.0876,VALID,355,VALID,0.505469,
2010-04-23, 01:14:05,VALID,917.588,VALID,0,VALID,96.7564,VALID,0,VALID,21.1071,VALID,355,VALID,0.233203,
2010-04-23, 01:15:05,VALID,917.566,VALID,0,VALID,96.764,VALID,0,VALID,21.0876,VALID,355,VALID,0.2625,
2010-04-23, 01:16:05,VALID,917.522,VALID,0,VALID,96.8098,VALID,0,VALID,21.086,VALID,355,VALID,0.025,
2010-04-23, 01:17:05,VALID,917.506,VALID,0,VALID,96.8098,VALID,0,VALID,21.1071,VALID,355,VALID,0,
2010-04-23, 01:18:05,VALID,917.501,VALID,0,VALID,96.7259,VALID,0,VALID,21.0665,VALID,355,VALID,0.553906,
2010-04-23, 01:19:05,VALID,917.479,VALID,0,VALID,96.7564,VALID,0,VALID,21.0486,VALID,355,VALID,0.221484,
2010-04-23, 01:20:05,VALID,917.441,VALID,0,VALID,96.8403,VALID,0,VALID,21.0681,VALID,355,VALID,0.300391,
2010-04-23, 01:21:05,VALID,917.446,VALID,0,VALID,96.8098,VALID,0,VALID,21.0486,VALID,355,VALID,0.272656,
2010-04-23, 01:22:05,VALID,917.453,VALID,0,VALID,96.7793,VALID,0,VALID,21.0291,VALID,355,VALID,0.448047,
2010-04-23, 01:23:05,VALID,917.432,VALID,0,VALID,96.825,VALID,0,VALID,21.0486,VALID,355,VALID,0.272266,
2010-04-23, 01:24:05,VALID,917.452,VALID,0,VALID,96.7945,VALID,0,VALID,21.0096,VALID,355,VALID,0.230469,
2010-04-23, 01:25:05,VALID,917.414,VALID,0,VALID,96.7183,VALID,0,VALID,20.9706,VALID,355,VALID,0.402344,
2010-04-23, 01:26:05,VALID,917.45,VALID,0,VALID,96.7564,VALID,0,VALID,20.9511,VALID,355,VALID,0.464453,
2010-04-23, 01:27:05,VALID,917.445,VALID,0,VALID,96.7564,VALID,0,VALID,20.9105,VALID,355,VALID,0.582031,
2010-04-23, 01:28:05,VALID,917.462,VALID,0,VALID,96.7869,VALID,0,VALID,20.912,VALID,355,VALID,0.483594,
2010-04-23, 01:29:05,VALID,917.463,VALID,0,VALID,96.7945,VALID,0,VALID,20.8925,VALID,355,VALID,0.442187,
2010-04-23, 01:30:05,VALID,917.494,VALID,0,VALID,96.7945,VALID,0,VALID,20.8714,VALID,355,VALID,0.146875,
2010-04-23, 01:31:05,VALID,917.473,VALID,0,VALID,96.8403,VALID,0,VALID,20.8925,VALID,355,VALID,0.320313,
2010-04-23, 01:32:05,VALID,917.49,VALID,0,VALID,96.886,VALID,0,VALID,20.9316,VALID,355,VALID,0.316797,
2010-04-23, 01:33:05,VALID,917.52,VALID,0,VALID,96.9089,VALID,0,VALID,20.9511,VALID,355,VALID,0.744531,
2010-04-23, 01:34:05,VALID,917.502,VALID,0,VALID,96.9394,VALID,0,VALID,20.9706,VALID,355,VALID,0.603906,
2010-04-23, 01:35:05,VALID,917.502,VALID,0,VALID,96.9394,VALID,0,VALID,20.9706,VALID,355,VALID,0.255078,
2010-04-23, 01:36:05,VALID,917.492,VALID,0,VALID,96.9317,VALID,0,VALID,20.9901,VALID,355,VALID,0.151172,
2010-04-23, 01:37:05,VALID,917.482,VALID,0,VALID,96.947,VALID,0,VALID,20.9901,VALID,355,VALID,0.322266,
2010-04-23, 01:38:05,VALID,917.49,VALID,0,VALID,96.947,VALID,0,VALID,21.0096,VALID,355,VALID,0.108594,
2010-04-23, 01:39:05,VALID,917.5,VALID,0,VALID,96.9775,VALID,0,VALID,21.0291,VALID,355,VALID,0.35625,
2010-04-23, 01:40:05,VALID,917.495,VALID,0,VALID,96.9622,VALID,0,VALID,20.9901,VALID,355,VALID,0.366797,
2010-04-23, 01:41:05,VALID,917.497,VALID,0,VALID,96.9927,VALID,0,VALID,20.9901,VALID,355,VALID,0.372266,
2010-04-23, 01:42:05,VALID,917.474,VALID,0,VALID,97.0003,VALID,0,VALID,21.0096,VALID,355,VALID,0.291797,
2010-04-23, 01:43:05,VALID,917.461,VALID,0,VALID,97.0156,VALID,0,VALID,21.0486,VALID,355,VALID,0.0207031,
2010-04-23, 01:44:04,VALID,917.458,VALID,0,VALID,96.9851,VALID,0,VALID,21.0486,VALID,355,VALID,0.0125,
2010-04-23, 01:45:04,VALID,917.458,VALID,0,VALID,96.9927,VALID,0,VALID,21.0291,VALID,355,VALID,0.191406,
2010-04-23, 01:46:04,VALID,917.447,VALID,0,VALID,96.9851,VALID,0,VALID,21.0486,VALID,355,VALID,0.065625,
2010-04-23, 01:47:04,VALID,917.426,VALID,0,VALID,97.008,VALID,0,VALID,21.0291,VALID,355,VALID,0.623828,
2010-04-23, 01:48:04,VALID,917.462,VALID,0,VALID,97.0232,VALID,0,VALID,21.0681,VALID,355,VALID,0.414063,
2010-04-23, 01:49:04,VALID,917.407,VALID,0,VALID,97.0156,VALID,0,VALID,21.1071,VALID,355,VALID,0.00195313,
2010-04-23, 01:50:04,VALID,917.419,VALID,0,VALID,97.0385,VALID,0,VALID,21.0876,VALID,355,VALID,0.353125,
2010-04-23, 01:51:04,VALID,917.399,VALID,0,VALID,97.0308,VALID,0,VALID,21.0486,VALID,355,VALID,0.226953,
2010-04-23, 01:52:04,VALID,917.404,VALID,0,VALID,97.0156,VALID,0,VALID,21.0681,VALID,355,VALID,0.33125,
2010-04-23, 01:53:04,VALID,917.37,VALID,0,VALID,97.0308,VALID,0,VALID,21.008,VALID,355,VALID,0.710156,
2010-04-23, 01:54:04,VALID,917.358,VALID,0,VALID,97.0232,VALID,0,VALID,21.0486,VALID,355,VALID,0.273828,
2010-04-23, 01:55:04,VALID,917.318,VALID,0,VALID,97.0232,VALID,0,VALID,21.0681,VALID,355,VALID,0,
2010-04-23, 01:56:04,VALID,917.315,VALID,0,VALID,97.0308,VALID,0,VALID,21.0665,VALID,355,VALID,0,
2010-04-23, 01:57:04,VALID,917.343,VALID,0,VALID,97.0232,VALID,0,VALID,21.1071,VALID,355,VALID,0,
2010-04-23, 01:58:04,VALID,917.338,VALID,0,VALID,97.0232,VALID,0,VALID,21.1071,VALID,355,VALID,0.542578,
2010-04-23, 01:59:04,VALID,917.32,VALID,0,VALID,97.0308,VALID,0,VALID,21.0876,VALID,355,VALID,0.542188,
2010-04-23, 02:00:04,VALID,917.302,VALID,0,VALID,97.0385,VALID,0,VALID,21.1266,VALID,355,VALID,0.610547,
2010-04-23, 02:01:04,VALID,917.368,VALID,0,VALID,97.0232,VALID,0,VALID,21.1266,VALID,355,VALID,0.582812,
2010-04-23, 02:02:04,VALID,917.349,VALID,0,VALID,97.0537,VALID,0,VALID,21.1461,VALID,355,VALID,0.357422,
2010-04-23, 02:03:04,VALID,917.318,VALID,0,VALID,97.0308,VALID,0,VALID,21.164,VALID,355,VALID,0.514844,
2010-04-23, 02:04:04,VALID,917.318,VALID,0,VALID,97.0156,VALID,0,VALID,21.1266,VALID,355,VALID,0.563281,
2010-04-23, 02:05:04,VALID,917.284,VALID,0,VALID,97.0003,VALID,0,VALID,21.086,VALID,355,VALID,0.6875,
2010-04-23, 02:06:04,VALID,917.269,VALID,0,VALID,97.0003,VALID,0,VALID,21.1055,VALID,355,VALID,0.829687,
2010-04-23, 02:07:04,VALID,917.247,VALID,0,VALID,96.9851,VALID,0,VALID,21.1266,VALID,355,VALID,0.479297,
2010-04-23, 02:08:04,VALID,917.228,VALID,0,VALID,97.0003,VALID,0,VALID,21.1055,VALID,355,VALID,0.479688,
2010-04-23, 02:09:04,VALID,917.218,VALID,0,VALID,96.9698,VALID,0,VALID,21.086,VALID,355,VALID,0.223438,
2010-04-23, 02:10:04,VALID,917.223,VALID,0,VALID,96.9927,VALID,0,VALID,21.1071,VALID,355,VALID,0.464453,
2010-04-23, 02:11:04,VALID,917.251,VALID,0,VALID,96.9698,VALID,0,VALID,21.0665,VALID,355,VALID,0.423828,
2010-04-23, 02:12:04,VALID,917.241,VALID,0,VALID,96.9622,VALID,0,VALID,21.0876,VALID,355,VALID,0.392969,
2010-04-23, 02:13:04,VALID,917.242,VALID,0,VALID,96.8936,VALID,0,VALID,21.0275,VALID,355,VALID,0.484766,
2010-04-23, 02:14:04,VALID,917.254,VALID,0,VALID,96.8707,VALID,0,VALID,21.0291,VALID,355,VALID,0.594922,
2010-04-23, 02:15:04,VALID,917.218,VALID,0,VALID,96.8936,VALID,0,VALID,21.0291,VALID,355,VALID,0.412891,
2010-04-23, 02:16:04,VALID,917.224,VALID,0,VALID,96.8631,VALID,0,VALID,21.0112,VALID,355,VALID,0.225391,
2010-04-23, 02:17:04,VALID,917.195,VALID,0,VALID,96.8784,VALID,0,VALID,20.9495,VALID,355,VALID,0.226953,
2010-04-23, 02:18:04,VALID,917.199,VALID,0,VALID,96.8555,VALID,0,VALID,20.9901,VALID,355,VALID,0,
2010-04-23, 02:19:04,VALID,917.184,VALID,0,VALID,96.8555,VALID,0,VALID,20.969,VALID,355,VALID,0,
2010-04-23, 02:20:04,VALID,917.189,VALID,0,VALID,96.8555,VALID,0,VALID,20.9511,VALID,355,VALID,0.283203,
2010-04-23, 02:21:04,VALID,917.233,VALID,0,VALID,96.8555,VALID,0,VALID,20.93,VALID,355,VALID,0.343359,
2010-04-23, 02:22:04,VALID,917.266,VALID,0,VALID,96.8479,VALID,0,VALID,20.9105,VALID,355,VALID,0.276172,
2010-04-23, 02:23:04,VALID,917.265,VALID,0,VALID,96.8479,VALID,0,VALID,20.912,VALID,355,VALID,0.426172,
2010-04-23, 02:24:04,VALID,917.257,VALID,0,VALID,96.8174,VALID,0,VALID,20.8925,VALID,355,VALID,0.354297,
2010-04-23, 02:25:04,VALID,917.247,VALID,0,VALID,96.8326,VALID,0,VALID,20.873,VALID,355,VALID,0.222266,
2010-04-23, 02:26:04,VALID,917.233,VALID,0,VALID,96.8479,VALID,0,VALID,20.873,VALID,355,VALID,0.180859,
2010-04-23, 02:27:04,VALID,917.219,VALID,0,VALID,96.9241,VALID,0,VALID,20.8925,VALID,355,VALID,0.4125,
2010-04-23, 02:28:04,VALID,917.177,VALID,0,VALID,96.8707,VALID,0,VALID,20.8925,VALID,355,VALID,0.258203,
2010-04-23, 02:29:04,VALID,917.177,VALID,0,VALID,96.8707,VALID,0,VALID,20.912,VALID,355,VALID,0.166797,
2010-04-23, 02:30:04,VALID,917.164,VALID,0,VALID,96.8555,VALID,0,VALID,20.8925,VALID,355,VALID,0.108203,
2010-04-23, 02:31:04,VALID,917.108,VALID,0,VALID,96.8555,VALID,0,VALID,20.8925,VALID,355,VALID,0,
2010-04-23, 02:32:04,VALID,917.125,VALID,0,VALID,96.8326,VALID,0,VALID,20.8925,VALID,355,VALID,0.0015625,
2010-04-23, 02:33:04,VALID,917.102,VALID,0,VALID,96.8403,VALID,0,VALID,20.8925,VALID,355,VALID,0.174219,
2010-04-23, 02:34:04,VALID,917.085,VALID,0,VALID,96.8479,VALID,0,VALID,20.8925,VALID,355,VALID,0.253516,
2010-04-23, 02:35:04,VALID,917.083,VALID,0,VALID,96.8479,VALID,0,VALID,20.8925,VALID,355,VALID,0.376172,
2010-04-23, 02:36:04,VALID,917.081,VALID,0,VALID,96.8021,VALID,0,VALID,20.873,VALID,355,VALID,0.239453,
2010-04-23, 02:37:04,VALID,917.044,VALID,0,VALID,96.7945,VALID,0,VALID,20.8535,VALID,355,VALID,0.0394531,
2010-04-23, 02:38:04,VALID,917.039,VALID,0,VALID,96.8098,VALID,0,VALID,20.8535,VALID,355,VALID,0.404687,
2010-04-23, 02:39:04,VALID,917.043,VALID,0,VALID,96.8479,VALID,0,VALID,20.8324,VALID,355,VALID,0.241016,
2010-04-23, 02:40:04,VALID,917.013,VALID,0,VALID,96.8326,VALID,0,VALID,20.873,VALID,355,VALID,0.259766,
2010-04-23, 02:41:04,VALID,917.004,VALID,0,VALID,96.8555,VALID,0,VALID,20.873,VALID,355,VALID,0.21875,
2010-04-23, 02:42:04,VALID,916.999,VALID,0,VALID,96.9241,VALID,0,VALID,20.9316,VALID,355,VALID,0.146875,
2010-04-23, 02:43:04,VALID,916.978,VALID,0,VALID,96.947,VALID,0,VALID,20.9706,VALID,355,VALID,0.00585938,
2010-04-23, 02:44:04,VALID,916.952,VALID,0,VALID,96.8555,VALID,0,VALID,20.9511,VALID,355,VALID,0,
2010-04-23, 02:45:04,VALID,916.947,VALID,0,VALID,96.8479,VALID,0,VALID,20.9105,VALID,355,VALID,0,
2010-04-23, 02:46:04,VALID,916.946,VALID,0,VALID,96.8631,VALID,0,VALID,20.9316,VALID,355,VALID,0,
2010-04-23, 02:47:04,VALID,916.938,VALID,0,VALID,96.8707,VALID,0,VALID,20.9316,VALID,355,VALID,0,
2010-04-23, 02:48:04,VALID,916.956,VALID,0,VALID,96.9012,VALID,0,VALID,20.9511,VALID,355,VALID,0,
2010-04-23, 02:49:04,VALID,916.963,VALID,0,VALID,96.9317,VALID,0,VALID,20.969,VALID,355,VALID,0,
2010-04-23, 02:50:04,VALID,916.97,VALID,0,VALID,96.9622,VALID,0,VALID,21.0291,VALID,355,VALID,0,
2010-04-23, 02:51:04,VALID,916.986,VALID,0,VALID,96.9622,VALID,0,VALID,21.0681,VALID,355,VALID,0,
2010-04-23, 02:52:04,VALID,916.977,VALID,0,VALID,96.947,VALID,0,VALID,21.1071,VALID,355,VALID,0,
2010-04-23, 02:53:04,VALID,916.962,VALID,0,VALID,96.9622,VALID,0,VALID,21.1461,VALID,355,VALID,0,
2010-04-23, 02:54:04,VALID,916.957,VALID,0,VALID,96.947,VALID,0,VALID,21.1461,VALID,355,VALID,0,
2010-04-23, 02:55:04,VALID,916.989,VALID,0,VALID,96.947,VALID,0,VALID,21.1852,VALID,355,VALID,0,
2010-04-23, 02:56:04,VALID,916.971,VALID,0,VALID,96.9241,VALID,0,VALID,21.1852,VALID,355,VALID,0.00195313,
2010-04-23, 02:57:04,VALID,916.956,VALID,0,VALID,96.8707,VALID,0,VALID,21.1852,VALID,355,VALID,0,
2010-04-23, 02:58:04,VALID,916.955,VALID,0,VALID,96.8174,VALID,0,VALID,21.1461,VALID,355,VALID,0,
2010-04-23, 02:59:04,VALID,916.965,VALID,0,VALID,96.7869,VALID,0,VALID,21.1657,VALID,355,VALID,0,
2010-04-23, 03:00:04,VALID,916.952,VALID,0,VALID,96.8021,VALID,0,VALID,21.1852,VALID,355,VALID,0,
2010-04-23, 03:01:04,VALID,916.963,VALID,0,VALID,96.8326,VALID,0,VALID,21.2031,VALID,355,VALID,0,
2010-04-23, 03:02:04,VALID,916.945,VALID,0,VALID,96.8326,VALID,0,VALID,21.2632,VALID,355,VALID,0.373828,
2010-04-23, 03:03:04,VALID,916.952,VALID,0,VALID,96.8174,VALID,0,VALID,21.2616,VALID,355,VALID,0.28125,
2010-04-23, 03:04:04,VALID,916.959,VALID,0,VALID,96.7259,VALID,0,VALID,21.2616,VALID,355,VALID,0.278516,
2010-04-23, 03:05:04,VALID,916.973,VALID,0,VALID,96.7183,VALID,0,VALID,21.2827,VALID,355,VALID,0.190625,
2010-04-23, 03:06:04,VALID,916.956,VALID,0,VALID,96.6573,VALID,0,VALID,21.2827,VALID,355,VALID,0.336328,
2010-04-23, 03:07:04,VALID,916.954,VALID,0,VALID,96.5887,VALID,0,VALID,21.2827,VALID,355,VALID,0.463672,
2010-04-23, 03:08:04,VALID,916.943,VALID,0,VALID,96.5201,VALID,0,VALID,21.2421,VALID,355,VALID,0.238672,
2010-04-23, 03:09:04,VALID,916.943,VALID,0,VALID,96.5658,VALID,0,VALID,21.2632,VALID,355,VALID,0,
2010-04-23, 03:10:04,VALID,916.946,VALID,0,VALID,96.5048,VALID,0,VALID,21.2616,VALID,355,VALID,0,
2010-04-23, 03:11:04,VALID,916.918,VALID,0,VALID,96.4972,VALID,0,VALID,21.2632,VALID,355,VALID,0,
2010-04-23, 03:12:04,VALID,916.934,VALID,0,VALID,96.4896,VALID,0,VALID,21.2616,VALID,355,VALID,0,
2010-04-23, 03:13:04,VALID,916.951,VALID,0,VALID,96.4972,VALID,0,VALID,21.2827,VALID,355,VALID,0,
2010-04-23, 03:14:04,VALID,916.903,VALID,0,VALID,96.4819,VALID,0,VALID,21.2632,VALID,355,VALID,0.0730469,
2010-04-23, 03:15:04,VALID,916.903,VALID,0,VALID,96.4362,VALID,0,VALID,21.2632,VALID,355,VALID,0.0890625,
2010-04-23, 03:16:04,VALID,916.885,VALID,0,VALID,96.4438,VALID,0,VALID,21.2421,VALID,355,VALID,0,
2010-04-23, 03:17:04,VALID,916.85,VALID,0,VALID,96.4362,VALID,0,VALID,21.2437,VALID,355,VALID,0,
2010-04-23, 03:18:04,VALID,916.821,VALID,0,VALID,96.4515,VALID,0,VALID,21.2632,VALID,355,VALID,0,
2010-04-23, 03:19:04,VALID,916.814,VALID,0,VALID,96.4057,VALID,0,VALID,21.2437,VALID,355,VALID,0,
2010-04-23, 03:20:04,VALID,916.803,VALID,0,VALID,96.3676,VALID,0,VALID,21.2226,VALID,355,VALID,0.0660156,
2010-04-23, 03:21:04,VALID,916.763,VALID,0,VALID,96.36,VALID,0,VALID,21.2031,VALID,355,VALID,0,
2010-04-23, 03:22:04,VALID,916.768,VALID,0,VALID,96.3905,VALID,0,VALID,21.2031,VALID,355,VALID,0,
2010-04-23, 03:23:04,VALID,916.75,VALID,0,VALID,96.3829,VALID,0,VALID,21.2242,VALID,355,VALID,0,
2010-04-23, 03:24:04,VALID,916.74,VALID,0,VALID,96.3142,VALID,0,VALID,21.2047,VALID,355,VALID,0,
2010-04-23, 03:25:04,VALID,916.747,VALID,0,VALID,96.3524,VALID,0,VALID,21.1852,VALID,355,VALID,0,
2010-04-23, 03:26:04,VALID,916.732,VALID,0,VALID,96.4133,VALID,0,VALID,21.2047,VALID,355,VALID,0,
2010-04-23, 03:27:04,VALID,916.787,VALID,0,VALID,96.4133,VALID,0,VALID,21.1836,VALID,355,VALID,0,
2010-04-23, 03:28:04,VALID,916.738,VALID,0,VALID,96.4286,VALID,0,VALID,21.2047,VALID,355,VALID,0.249219,
2010-04-23, 03:29:04,VALID,916.77,VALID,0,VALID,96.4057,VALID,0.107441,VALID,21.1836,VALID,355,VALID,0.25,
2010-04-23, 03:30:04,VALID,916.781,VALID,0,VALID,96.4286,VALID,0,VALID,21.2242,VALID,355,VALID,0.307422,
2010-04-23, 03:31:04,VALID,916.786,VALID,0,VALID,96.4362,VALID,0,VALID,21.2242,VALID,355,VALID,0.276172,
2010-04-23, 03:32:04,VALID,916.804,VALID,0,VALID,96.4515,VALID,0,VALID,21.2242,VALID,355,VALID,0.227344,
2010-04-23, 03:33:04,VALID,916.836,VALID,0,VALID,96.4515,VALID,0,VALID,21.2242,VALID,355,VALID,0.414063,
2010-04-23, 03:34:04,VALID,916.819,VALID,0,VALID,96.4515,VALID,0,VALID,21.2242,VALID,355,VALID,0.244141,
2010-04-23, 03:35:04,VALID,916.851,VALID,0,VALID,96.4743,VALID,0,VALID,21.2242,VALID,355,VALID,0,
2010-04-23, 03:36:04,VALID,916.846,VALID,0,VALID,96.4819,VALID,0,VALID,21.2632,VALID,355,VALID,0,
2010-04-23, 03:37:04,VALID,916.849,VALID,0,VALID,96.4972,VALID,0,VALID,21.2421,VALID,355,VALID,0,
2010-04-23, 03:38:04,VALID,916.832,VALID,0,VALID,96.5048,VALID,0,VALID,21.2632,VALID,355,VALID,0,
2010-04-23, 03:39:04,VALID,916.839,VALID,0,VALID,96.4667,VALID,0,VALID,21.2843,VALID,355,VALID,0,
2010-04-23, 03:40:04,VALID,916.856,VALID,0,VALID,96.4362,VALID,0,VALID,21.2421,VALID,355,VALID,0.106641,
2010-04-23, 03:41:04,VALID,916.847,VALID,0,VALID,96.4133,VALID,0,VALID,21.2827,VALID,355,VALID,0,
2010-04-23, 03:42:04,VALID,916.826,VALID,0,VALID,96.4057,VALID,0,VALID,21.3022,VALID,355,VALID,0.0996094,
2010-04-23, 03:43:04,VALID,916.835,VALID,0,VALID,96.3219,VALID,0,VALID,21.2616,VALID,355,VALID,0,
2010-04-23, 03:44:04,VALID,916.823,VALID,0,VALID,96.3219,VALID,0,VALID,21.2827,VALID,355,VALID,0.165625,
2010-04-23, 03:45:04,VALID,916.783,VALID,0,VALID,96.299,VALID,0,VALID,21.2632,VALID,355,VALID,0.417578,
2010-04-23, 03:46:04,VALID,916.747,VALID,0,VALID,96.2685,VALID,0,VALID,21.2632,VALID,355,VALID,0.526953,
2010-04-23, 03:47:04,VALID,916.735,VALID,0,VALID,96.2456,VALID,0,VALID,21.2031,VALID,355,VALID,0.582031,
2010-04-23, 03:48:04,VALID,916.719,VALID,0,VALID,96.2228,VALID,0,VALID,21.2047,VALID,355,VALID,0.707031,